TimeIST,TemperatureF,Dew PointF,Humidity,Sea Level PressureIn,VisibilityMPH,Wind Direction,Wind SpeedMPH,Gust SpeedMPH,PrecipitationIn,Events,Conditions,WindDirDegrees,DateUTC
12:00 AM,60.8,51.8,72,30.01,1.2,Calm,Calm,-,N/A,,Smoke,0,2013-02-19 18:30:00
1:00 AM,60.8,51.8,72,30.01,1.2,NE,1.2,-,N/A,,Smoke,50,2013-02-19 19:30:00
2:00 AM,57.2,50.0,77,30.01,1.2,NNE,1.2,-,N/A,,Smoke,30,2013-02-19 20:30:00
2:30 AM,57,51,73,30.00,1,Calm,Calm,,,,Smoke,,2013-02-19 21:00:00
4:00 AM,57.2,51.8,82,29.98,1.2,Calm,Calm,-,N/A,,Smoke,0,2013-02-19 22:30:00
6:00 AM,55.4,51.8,88,30.01,1.2,Calm,Calm,-,N/A,,Partly Cloudy,0,2013-02-20 00:30:00
7:00 AM,55.4,51.8,88,30.01,1.2,Calm,Calm,-,N/A,,Partly Cloudy,0,2013-02-20 01:30:00
8:00 AM,55.4,50.0,82,30.06,1.6,Calm,Calm,-,N/A,,Haze,0,2013-02-20 02:30:00
8:30 AM,59,53,73,30.10,1,NE,2.3,,,,Haze,50,2013-02-20 03:00:00
8:30 AM,59.0,51.8,77,30.09,1.6,NE,2.3,-,N/A,,Haze,50,2013-02-20 03:00:00
9:00 AM,60.8,51.8,72,30.09,1.9,NE,3.5,-,N/A,,Haze,40,2013-02-20 03:30:00
10:00 AM,68.0,48.2,49,30.12,2.5,NE,4.6,-,N/A,,Haze,50,2013-02-20 04:30:00
11:00 AM,71.6,46.4,41,30.12,2.5,East,4.6,-,N/A,,Haze,100,2013-02-20 05:30:00
11:30 AM,72,51,37,30.06,2,NE,3.5,,,,Haze,50,2013-02-20 06:00:00
1:00 PM,73.4,50.0,44,30.06,3.1,West,5.8,-,N/A,,Haze,270,2013-02-20 07:30:00
2:00 PM,77.0,48.2,36,30.04,3.1,SW,4.6,-,N/A,,Haze,230,2013-02-20 08:30:00
2:30 PM,77,44,21,29.97,2,West,9.2,,,,Haze,270,2013-02-20 09:00:00
3:00 PM,77.0,44.6,32,30.01,3.1,West,6.9,-,N/A,,Haze,270,2013-02-20 09:30:00
4:00 PM,77.0,44.6,32,30.01,3.1,WNW,4.6,-,N/A,,Haze,300,2013-02-20 10:30:00
5:00 PM,73.4,59.0,61,29.98,3.1,WSW,3.5,-,N/A,,Haze,250,2013-02-20 11:30:00
5:30 PM,76,46,24,29.95,2,NW,3.5,,,,Haze,320,2013-02-20 12:00:00
6:00 PM,75.2,46.4,36,30.01,3.1,WNW,2.3,-,N/A,,Haze,290,2013-02-20 12:30:00
7:00 PM,69.8,48.2,46,30.01,1.9,WNW,2.3,-,N/A,,Haze,300,2013-02-20 13:30:00
7:30 PM,69.8,48.2,46,30.01,1.9,WNW,3.5,-,N/A,,Haze,300,2013-02-20 14:00:00
8:00 PM,69.8,48.2,46,30.01,1.9,NW,3.5,-,N/A,,Haze,320,2013-02-20 14:30:00
8:30 PM,67,50,43,30.00,1,Calm,Calm,,,,Haze,,2013-02-20 15:00:00
9:00 PM,66.2,50.0,56,30.04,1.6,Calm,Calm,-,N/A,,Haze,0,2013-02-20 15:30:00
9:30 PM,66.2,50.0,56,30.04,1.6,Calm,Calm,-,N/A,,Haze,0,2013-02-20 16:00:00
10:00 PM,66.2,50.0,56,30.04,1.6,Calm,Calm,-,N/A,,Haze,0,2013-02-20 16:30:00
11:00 PM,64.4,48.2,56,30.04,1.6,Calm,Calm,-,N/A,,Haze,0,2013-02-20 17:30:00
11:30 PM,64,49,48,30.02,1,Calm,Calm,,,,Haze,,2013-02-20 18:00:00